Date String (YYYY-MM-DD hh:mm:ss) UTC,Instrument flags,Ambient pressure (hPa),Sample flow (lpm),Bypass flow (lpm),Sample temperature (°C),Ambient temperature (°C),ASC tube jacket temperature (°C),LED temperature (°C),Box temperature (°C),Sample RH (%),Span deviation,Mass concentration (μg/m³),Mass concentration (μg/m³),Mass concentration (μg/m³)
DateTimeUTC,F1_M11,P_M11,Q1_M11,Q2_M11,T1_M11,T2_M11,T3_M11,T4_M11,T5_M11,U1_M11,ZSPAN_M11,X2_M11,X0_M11,X1_M11
2021-09-16 03:00:00,,0824.2,4.99,0.00,29.4,28.1,00.0,38.4,31.2,16.4,0001.2,0008.16,0024.82,0006.75
2021-09-16 03:01:00,,0824.2,5.01,0.00,29.4,28.2,00.0,38.4,31.3,16.5,0001.3,0008.06,0023.53,0006.73
2021-09-16 03:02:00,,0824.2,5.00,0.00,29.5,28.3,00.0,38.4,31.3,16.2,0001.3,0008.03,0022.22,0006.71
2021-09-16 03:03:00,,0824.3,5.00,0.00,29.5,28.4,00.0,38.5,31.4,16.2,0001.3,0008.02,0021.28,0006.70
2021-09-16 03:04:00,,0824.3,5.00,0.00,29.5,28.5,00.0,38.5,31.4,16.0,0001.4,0007.95,0018.83,0006.67
2021-09-16 03:05:00,,0824.3,4.99,0.00,29.6,28.6,00.0,38.5,31.5,16.0,0001.4,0007.96,0018.37,0006.67
2021-09-16 03:06:00,,0824.2,4.99,0.00,29.6,28.6,00.0,38.5,31.5,16.1,0001.3,0007.95,0017.38,0006.68
2021-09-16 03:07:00,,0824.3,5.01,0.00,29.7,28.7,00.0,38.5,31.5,15.9,0001.2,0007.89,0017.65,0006.66
2021-09-16 03:08:00,,0824.2,5.01,0.00,29.6,27.8,00.0,38.6,31.3,15.9,0000.9,0007.82,0017.40,0006.64
2021-09-16 03:09:00,,0824.2,5.00,0.00,29.5,26.2,00.0,38.5,30.8,16.1,0000.6,0007.76,0017.23,0006.64
2021-09-16 03:10:00,,0824.2,4.99,0.00,29.4,26.2,00.0,38.5,30.8,16.1,0000.6,0007.84,0017.49,0006.65
2021-09-16 03:11:00,,0824.2,5.00,0.00,29.3,26.6,00.0,38.5,30.9,16.2,0000.5,0007.91,0017.50,0006.66
2021-09-16 03:12:00,,0824.2,5.01,0.00,29.3,27.0,00.0,38.5,31.0,16.4,0000.6,0007.91,0017.83,0006.65
2021-09-16 03:13:00,,0824.2,4.99,0.00,29.3,27.3,00.0,38.4,31.0,16.3,0000.7,0007.89,0017.79,0006.65
2021-09-16 03:14:00,,0824.2,5.00,0.00,29.3,27.6,00.0,38.4,31.1,16.6,0000.7,0007.87,0017.20,0006.65
2021-09-16 03:15:00,,0824.3,5.00,0.00,29.4,27.9,00.0,38.4,31.2,16.7,0000.4,0007.89,0017.44,0006.66
2021-09-16 03:16:00,,0824.2,4.99,0.00,29.4,28.0,00.0,38.4,31.2,16.6,0000.4,0007.83,0016.49,0006.65
2021-09-16 03:17:00,,0824.2,4.99,0.00,29.4,28.2,00.0,38.4,31.3,16.6,0000.7,0007.81,0016.95,0006.65
2021-09-16 03:18:00,,0824.2,5.01,0.00,29.5,28.3,00.0,38.5,31.3,16.7,0000.7,0007.85,0016.95,0006.66
2021-09-16 03:19:00,,0824.2,5.00,0.00,29.5,28.4,00.0,38.5,31.4,16.7,0001.0,0007.86,0017.03,0006.68
2021-09-16 03:20:00,,0824.4,4.99,0.00,29.5,28.5,00.0,38.5,31.4,16.6,0001.1,0007.85,0016.81,0006.68
2021-09-16 03:21:00,,0824.2,5.00,0.00,29.6,28.5,00.0,38.5,31.4,16.6,0001.3,0007.82,0016.46,0006.67
2021-09-16 03:22:00,,0824.3,5.00,0.00,29.6,28.6,00.0,38.5,31.5,16.5,0001.5,0007.81,0016.55,0006.68
2021-09-16 03:23:00,,0824.3,4.98,0.00,29.6,28.7,00.0,38.6,31.5,16.5,0001.5,0007.81,0017.45,0006.69
2021-09-16 03:24:00,,0824.3,5.01,0.00,29.7,28.7,00.0,38.6,31.6,16.6,0001.4,0007.80,0017.35,0006.70
2021-09-16 03:25:00,,0824.3,5.01,0.00,29.7,27.9,00.0,38.6,31.3,16.5,0001.5,0007.77,0017.32,0006.72
2021-09-16 03:26:00,,0824.2,5.00,0.00,29.5,26.2,00.0,38.6,30.9,16.7,0001.9,0007.81,0016.80,0006.73
2021-09-16 03:27:00,,0824.2,5.01,0.00,29.4,26.1,00.0,38.6,30.8,16.7,0001.9,0007.90,0017.93,0006.76
2021-09-16 03:28:00,,0824.2,4.99,0.00,29.3,26.5,00.0,38.5,30.9,16.7,0002.2,0007.95,0017.40,0006.78
2021-09-16 03:29:00,,0824.2,5.01,0.00,29.3,26.9,00.0,38.5,31.0,16.6,0002.5,0007.96,0017.07,0006.80
2021-09-16 03:30:00,,0824.2,4.99,0.00,29.3,27.3,00.0,38.5,31.0,16.5,0002.5,0007.96,0017.21,0006.81
2021-09-16 03:31:00,,0824.2,5.01,0.00,29.3,27.6,00.0,38.4,31.1,16.4,0002.6,0008.04,0017.80,0006.83
2021-09-16 03:32:00,,0824.2,4.99,0.00,29.4,27.8,00.0,38.4,31.1,16.4,0002.7,0008.02,0017.80,0006.84
2021-09-16 03:33:00,,0824.3,5.02,0.00,29.4,28.0,00.0,38.4,31.2,16.4,0002.8,0007.99,0017.76,0006.85
2021-09-16 03:34:00,,0824.4,4.99,0.00,29.4,28.1,00.0,38.5,31.2,16.3,0002.9,0008.01,0017.49,0006.86
2021-09-16 03:35:00,,0824.3,5.01,0.00,29.5,28.2,00.0,38.5,31.3,16.4,0003.4,0008.04,0017.83,0006.87
2021-09-16 03:36:00,,0824.4,4.99,0.00,29.5,28.3,00.0,38.5,31.3,16.4,0003.4,0008.09,0018.67,0006.88
2021-09-16 03:37:00,,0824.3,5.00,0.00,29.5,28.5,00.0,38.5,31.4,16.4,0003.3,0008.08,0018.50,0006.89
2021-09-16 03:38:00,,0824.3,4.99,0.00,29.5,28.5,00.0,38.5,31.4,16.4,0003.3,0008.03,0017.39,0006.88
2021-09-16 03:39:00,,0824.2,5.01,0.00,29.6,28.6,00.0,38.6,31.5,16.3,0003.1,0008.02,0017.28,0006.87
2021-09-16 03:40:00,,0824.2,5.00,0.00,29.6,28.7,00.0,38.6,31.5,16.0,0003.0,0008.00,0017.27,0006.87
2021-09-16 03:41:00,,0824.2,5.00,0.00,29.7,28.7,00.0,38.6,31.5,15.9,0003.1,0008.00,0017.16,0006.88
2021-09-16 03:42:00,,0824.3,5.01,0.00,29.7,28.8,00.0,38.6,31.6,16.0,0003.0,0007.99,0016.72,0006.88
2021-09-16 03:43:00,,0824.3,4.99,0.00,29.7,28.2,00.0,38.6,31.4,16.2,0002.9,0007.99,0016.37,0006.90
2021-09-16 03:44:00,,0824.2,5.00,0.00,29.6,26.4,00.0,38.6,31.0,16.3,0002.7,0008.01,0016.36,0006.91
2021-09-16 03:45:00,,0824.1,5.00,0.00,29.5,26.2,00.0,38.6,30.8,16.5,0002.8,0007.99,0016.03,0006.91
2021-09-16 03:46:00,,0824.2,4.99,0.00,29.4,26.6,00.0,38.6,30.9,16.4,0002.3,0007.98,0016.65,0006.90
2021-09-16 03:47:00,,0824.2,5.01,0.00,29.4,27.0,00.0,38.5,31.0,16.3,0002.2,0007.93,0016.06,0006.88
2021-09-16 03:48:00,,0824.3,4.99,0.00,29.4,27.3,00.0,38.5,31.1,16.4,0002.4,0007.91,0016.69,0006.87
2021-09-16 03:49:00,,0824.3,5.01,0.00,29.4,27.6,00.0,38.5,31.1,16.5,0002.6,0007.90,0017.65,0006.87
2021-09-16 03:50:00,,0824.2,4.99,0.00,29.4,27.8,00.0,38.5,31.2,16.5,0002.9,0007.88,0017.37,0006.88
2021-09-16 03:51:00,,0824.2,4.99,0.00,29.4,28.0,00.0,38.5,31.2,16.5,0002.7,0007.90,0018.37,0006.90
2021-09-16 03:52:00,,0824.2,5.00,0.00,29.5,28.2,00.0,38.5,31.3,16.5,0002.6,0007.88,0018.80,0006.89
2021-09-16 03:53:00,,0824.3,5.00,0.00,29.5,28.3,00.0,38.5,31.3,16.4,0002.8,0007.88,0019.35,0006.90
2021-09-16 03:54:00,,0824.3,5.00,0.00,29.5,28.3,00.0,38.5,31.3,16.4,0003.0,0007.97,0020.47,0006.91
2021-09-16 03:55:00,,0824.3,4.98,0.00,29.5,28.4,00.0,38.5,31.4,16.3,0003.1,0007.99,0020.42,0006.90
2021-09-16 03:56:00,,0824.3,4.99,0.00,29.6,28.5,00.0,38.5,31.4,16.3,0003.1,0007.99,0019.67,0006.89
2021-09-16 03:57:00,,0824.3,5.00,0.00,29.6,28.6,00.0,38.6,31.5,16.3,0003.3,0008.00,0018.47,0006.91
2021-09-16 03:58:00,,0824.3,5.00,0.00,29.6,28.7,00.0,38.6,31.5,16.3,0003.2,0008.03,0018.20,0006.92
2021-09-16 03:59:00,,0824.3,5.00,0.00,29.7,28.7,00.0,38.6,31.5,16.3,0003.1,0008.03,0017.29,0006.94
